Location: Lombard
(41.8800°N, 88.0080°W)
Time: 17:07:32
(UTC-06:00)

Vanguard 3 - Pass Details

Date: 18 December 2023
Orbit: 508 x 3239 km, 33.4° (Epoch: 23 February)

Event Time Altitude Azimuth Distance (km) Brightness Sun altitude
Rises 19:55:15 0° 263° (W) 7,201 12.9 -38.6°
Reaches altitude 10° 20:00:17 10° 260° (W) 6,134 12.3 -39.5°
Maximum altitude 20:18:43 62° 187° (S) 2,808 9.6 -42.9°
Enters shadow 20:19:33 61° 175° (S) 2,770 9.5 -43.1°
